Regional Weather Roundup
Issued by NWS

Home | Current Version | Previous Version | Graphics & Text | Print | Product List | Glossary Off
Versions: 1 2 3 4 5 6 7 8 9 10 11 12 13 14 15 16 17 18 19 20 21 22 23 24 25 26 27 28 29 30 31 32 33 34 35 36 37 38 39 40 41 42 43 44 45 46 47 48 49 50

000
ASUS43 KMKX 301911
RWRWI

WISCONSIN REGIONAL WEATHER ROUNDUP
NATIONAL WEATHER SERVICE MILWAUKEE/SULLIVAN WI
200 PM CDT TUE SEP 30 2014

NOTE: "FAIR" INDICATES FEW OR NO CLOUDS BELOW 12,000 FEET WITH NO
SIGNIFICANT WEATHER AND/OR OBSTRUCTIONS TO VISIBILITY.

WIZ001-002-006>008-014>016-023>028-302000-
NORTHWEST WISCONSIN

CITY           SKY/WX    TMP DP  RH WIND       PRES   REMARKS
SUPERIOR ARPT  CLOUDY    51  44  77 E12G17    30.06F
ASHLAND        MOSUNNY   51  42  71 N12       30.09F
HAYWARD        SUNNY     56  40  55 VRB6      30.04F
SIREN          SUNNY     54  41  62 E6        30.02F
CUMBERLAND     SUNNY     52  39  62 SE6       30.02F
RICE LAKE      SUNNY     53  41  64 SE6       30.04F
CHETEK         SUNNY     53  43  69 E7        30.03F
LADYSMITH      SUNNY     57  43  59 E6        30.05F
EAU CLAIRE     SUNNY     55  41  59 E8        30.02F
MENOMONIE      SUNNY     53  41  64 E9        30.04F
NEW RICHMOND   MOSUNNY   53  41  64 E8        30.02F
OSCEOLA        MOSUNNY   54  44  67 SE7       30.03F
$$

WIZ003>005-009-010-017-018-302000-
NORTH CENTRAL WISCONSIN

CITY           SKY/WX    TMP DP  RH WIND       PRES   REMARKS
MANITOWISH WTR SUNNY     50  42  74 CALM      30.06F
ARBOR VITAE    SUNNY     52  42  70 SE6       30.06F
WOODRUFF       SUNNY     52  42  70 SE6       30.06F
RHINELANDER    SUNNY     50  40  68 VRB5      30.07F
EAGLE RIVER    SUNNY     51  39  63 CALM      30.06F
LAND O LAKES   PTSUNNY   51  42  71 N3        30.07F
PHILLIPS       SUNNY     55  41  60 SE6       30.04F
TOMAHAWK       SUNNY     52  41  65 CALM      30.06F
MEDFORD        SUNNY     54  43  66 SE6       30.04F
MERRILL        SUNNY     55  42  62 SE6       30.05F
$$

WIZ029-030-035-036-043>047-302000-
CENTRAL WISCONSIN

CITY           SKY/WX    TMP DP  RH WIND       PRES   REMARKS
WAUSAU         SUNNY     51  41  68 E6        30.05F
MOSINEE        SUNNY     52  43  71 SE5       30.07F
MARSHFIELD     MOSUNNY   53  42  66 E12       30.05F
STEVENS POINT  CLOUDY    46  39  76 E5        30.08F
WAUPACA        PTSUNNY   52  42  67 SE7       30.09F
WAUTOMA        NOT AVBL
WISC RAPIDS    CLOUDY    52  41  66 E7        30.08F
CAMP DOUGLAS   CLOUDY    48  46  93 SE8       30.06F
$$

WIZ011>013-019>022-031-037>040-048>050-302000-
NORTHEAST WISCONSIN

CITY           SKY/WX    TMP DP  RH WIND       PRES   REMARKS
ANTIGO         PTSUNNY   50  42  75 N3        30.06F
SHAWANO        CLOUDY    49  42  75 NE3       30.10F
OCONTO         CLOUDY    48  41  77 CALM      30.09S
STURGEON BAY   NOT AVBL
GREEN BAY      CLOUDY    49  43  80 NE5       30.09F
MANITOWOC      NOT AVBL
APPLETON       CLOUDY    46  39  76 N6        30.09F
CLINTONVILLE   CLOUDY    46  39  76 CALM      30.09F
OSHKOSH        CLOUDY    49  42  77 NE7       30.07F
$$

WIZ032>034-041-042-053>061-302000-
SOUTHWEST WISCONSIN

CITY           SKY/WX    TMP DP  RH WIND       PRES   REMARKS
LA CROSSE      CLOUDY    54  43  66 E6        30.04F
SPARTA         PTSUNNY   50  40  68 E5        30.05F
VIROQUA        PTSUNNY   52  42  69 SE6       30.03F
BOSCOBEL       CLOUDY    51  42  71 SE7       30.05F
PRAIRIE DU CHI PTSUNNY   55  44  65 E5        30.02F
PLATTEVILLE    CLOUDY    55  45  68 E9        30.04F
$$

WIZ056-057-062-063-064-067-068-302000-
SOUTH CENTRAL WISCONSIN

CITY           SKY/WX    TMP DP  RH WIND       PRES   REMARKS
REEDSBURG      CLOUDY    47  41  81 NE7       30.06F
BARABOO/DELLS  CLOUDY    47  40  76 E8        30.06F
LONE ROCK      CLOUDY    55  41  59 E6        30.06F
MINERAL POINT  CLOUDY    52  43  71 NE8       30.04F
MADISON        CLOUDY    49  42  77 NE8       30.06F
MIDDLETON      CLOUDY    50  43  76 E7        30.07F
WATERTOWN      CLOUDY    49  43  80 E5        30.07S
MONROE         CLOUDY    50  43  76 E7        30.04F
JANESVILLE     PTSUNNY   54  41  62 NE8       30.04F
$$

WIZ051-052-058>065-066-070>072-302000-
SOUTHEAST WISCONSIN

CITY           SKY/WX    TMP DP  RH WIND       PRES   REMARKS
MILWAUKEE      PTSUNNY   53  45  74 N14       30.06F
WAUKESHA       CLOUDY    50  41  71 CALM      30.07F
MILWAUKEE/TIMM PTSUNNY   55  43  62 NE8G20    30.06F
RACINE         CLOUDY    52  46  80 N17       30.07F
BURLINGTON     CLOUDY    51  41  70 NE6       30.05F
KENOSHA        PTSUNNY   56  46  69 NE12      30.05F
FOND DU LAC    CLOUDY    49  42  77 N6        30.07F
SHEBOYGAN      CLOUDY    50  42  74 NE3       30.08F
WEST BEND      CLOUDY    50  41  71 NE8       30.06F
JUNEAU         CLOUDY    47  41  79 NE7       30.08S
$$

LSZ147-162-302000-
LAKE SUPERIOR

STATION/POSITION TIME  TEMP    WIND        PRES    WAVE
                       AIR SEA DIR/SP/G            HT/PER
                 (UTC) (F)     (DEG/KT/KT) (MB)    (FT/S)
W MID LAKE BUOY  1850   46 50   70/ 10/ 12 1020.1F   2/ 5
DEVILS ISLAND    1900   45      70/ 14/ 16 1020.0F
SAXON HARBOR     1800   47      40/  9/ 11 1019.3
$$

LMZ867-665-643>646-302000-
LAKE MICHIGAN

STATION/POSITION TIME  TEMP    WIND        PRES    WAVE
                       AIR SEA DIR/SP/G            HT/PER
                 (UTC) (F)     (DEG/KT/KT) (MB)    (FT/S)
CHAMBERS ISLAND  1800   49     360/  8/ 12 1019.0F
S GREEN BAY BUOY 1900   48                 1019.8S
N MID LAKE BUOY  1850   50 58  360/  8/ 10 1018.2F   2/ 4
NORTHPORT PIER   1800   48     360/ 10/ 12 1018.6F
KEWAUNEE LAKESHO 1800   49      30/  8/ 12 1017.7F
SHEBOYGAN LAKESH 1900   48 54  360/ 11/ 13 1019.1F
PORT WASHINGTON  1800   53     340/  3/  9 1019.3S
ATWATER BUOY     1900   52      20/ 16/ 19 1018.7F
MILWAUKEE LAKESH 1800   51     360/ 11/ 15   N/A
S MID LAKE BUOY  1850   54 62   10/ 14/ 17 1016.9F   4/ 7
KENOSHA   LAKESH 1900   51      10/ 17/ 20 1017.3F
$$

TC  - TEMPERATURE IN CELSIUS
VSB - VISIBILITY IN STATUTE MILES
WCI - WIND CHILL INDEX
HX  - HEAT INDEX




USA.gov is the U.S. government's official web portal to all federal, state and local government web resources and services.